| time (UTC) | temp F | wind direction | speed MPH | gust MPH | rain 1hr in | rain 24hr in | rain mn in | humidity % | barometer mb |
| 20260506173050 | 69 | 261 | 3.0 | 10.0 | 0.00 | 0.51 | 0.51 | 88 | 1010.0 |
| 20260506171558 | 69 | 244 | 1.0 | 6.0 | 0.00 | 0.51 | 0.51 | 89 | 1009.8 |
| 20260506170053 | 69 | 256 | 1.0 | 8.0 | 0.00 | 0.51 | 0.51 | 90 | 1009.8 |
| 20260506164549 | 67 | 73 | 1.0 | 3.0 | 0.00 | 0.51 | 0.51 | 91 | 1009.7 |
| 20260506163047 | 67 | 223 | 1.0 | 5.0 | 0.00 | 0.51 | 0.51 | 93 | 1009.8 |
| 20260506161546 | 66 | 223 | 2.0 | 6.0 | 0.00 | 0.51 | 0.51 | 94 | 1009.7 |
| 20260506160059 | 64 | 74 | 1.0 | 9.0 | 0.01 | 0.51 | 0.51 | 95 | 1009.6 |
| 20260506154544 | 64 | 100 | 1.0 | 5.0 | 0.04 | 0.51 | 0.51 | 95 | 1009.9 |
| 20260506153044 | 63 | 303 | 1.0 | 6.0 | 0.06 | 0.51 | 0.51 | 95 | 1010.3 |
| 20260506151544 | 63 | 105 | 1.0 | 3.0 | 0.09 | 0.51 | 0.51 | 95 | 1010.7 |
| 20260506150047 | 63 | 152 | 0.0 | 2.0 | 0.13 | 0.50 | 0.50 | 95 | 1010.8 |
| 20260506144557 | 63 | 219 | 1.0 | 4.0 | 0.14 | 0.47 | 0.47 | 95 | 1011.0 |
| 20260506143041 | 63 | 235 | 3.0 | 11.0 | 0.15 | 0.45 | 0.45 | 95 | 1011.1 |
| 20260506141540 | 62 | 227 | 0.0 | 4.0 | 0.16 | 0.42 | 0.42 | 95 | 1010.0 |
| 20260506140039 | 62 | 199 | 1.0 | 5.0 | 0.15 | 0.37 | 0.37 | 95 | 1010.3 |
| 20260506134537 | 62 | 216 | 1.0 | 3.0 | 0.22 | 0.33 | 0.33 | 94 | 1010.2 |
| 20260506133039 | 62 | 223 | 1.0 | 5.0 | 0.23 | 0.30 | 0.30 | 94 | 1010.3 |
| 20260506131543 | 62 | 239 | 0.0 | 3.0 | 0.23 | 0.26 | 0.26 | 94 | 1010.1 |
| 20260506130035 | 62 | 152 | 0.0 | 4.0 | 0.21 | 0.22 | 0.22 | 93 | 1010.1 |
| 20260506124535 | 63 | 239 | 5.0 | 10.0 | 0.11 | 0.11 | 0.11 | 92 | 1010.8 |
| 20260506123029 | 63 | 241 | 1.0 | 2.0 | 0.07 | 0.07 | 0.07 | 91 | 1009.9 |
| 20260506121527 | 64 | 236 | 1.0 | 4.0 | 0.03 | 0.03 | 0.03 | 88 | 1009.8 |
| 20260506120026 | 64 | 265 | 0.0 | 3.0 | 0.01 | 0.01 | 0.01 | 86 | 1009.5 |
| 20260506114533 | 65 | 226 | 1.0 | 9.0 | 0.00 | 0.00 | 0.00 | 82 | 1009.2 |
| 20260506113016 | 67 | 199 | 1.0 | 4.0 | 0.00 | 0.00 | 0.00 | 78 | 1009.0 |
| 20260506111514 | 67 | 261 | 1.0 | 4.0 | 0.00 | 0.00 | 0.00 | 76 | 1008.7 |
| 20260506110017 | 68 | 212 | 1.0 | 11.0 | 0.00 | 0.00 | 0.00 | 74 | 1008.4 |
| 20260506104511 | 69 | 223 | 1.0 | 7.0 | 0.00 | 0.00 | 0.00 | 71 | 1008.3 |
| 20260506103010 | 69 | 210 | 2.0 | 13.0 | 0.00 | 0.00 | 0.00 | 70 | 1008.3 |
| 20260506101513 | 69 | 225 | 3.0 | 10.0 | 0.00 | 0.00 | 0.00 | 69 | 1007.8 |
| 20260506100021 | 70 | 252 | 1.0 | 8.0 | 0.00 | 0.00 | 0.00 | 69 | 1007.4 |
| 20260506094509 | 70 | 245 | 2.0 | 8.0 | 0.00 | 0.00 | 0.00 | 68 | 1007.5 |
| 20260506093008 | 70 | 241 | 2.0 | 9.0 | 0.00 | 0.00 | 0.00 | 67 | 1007.6 |
| 20260506091506 | 70 | 145 | 3.0 | 5.0 | 0.00 | 0.00 | 0.00 | 67 | 1007.6 |
| 20260506090004 | 69 | 217 | 1.0 | 4.0 | 0.00 | 0.00 | 0.00 | 65 | 1007.5 |
| 20260506084504 | 69 | 148 | 0.0 | 4.0 | 0.00 | 0.00 | 0.00 | 62 | 1007.3 |
| 20260506083002 | 69 | 246 | 0.0 | 3.0 | 0.00 | 0.00 | 0.00 | 61 | 1007.3 |
| 20260506081501 | 69 | 199 | 1.0 | 4.0 | 0.00 | 0.00 | 0.00 | 60 | 1007.2 |
| 20260506080104 | 69 | 223 | 0.0 | 3.0 | 0.00 | 0.00 | 0.00 | 60 | 1007.2 |
| 20260506073059 | 69 | 210 | 1.0 | 8.0 | 0.00 | 0.00 | 0.00 | 58 | 1007.3 |
| 20260506071600 | 69 | 246 | 1.0 | 4.0 | 0.00 | 0.00 | 0.00 | 58 | 1007.6 |
| 20260506061552 | 70 | 204 | 0.0 | 4.0 | 0.00 | 0.00 | 0.00 | 55 | 1008.1 |
| 20260506044547 | 68 | 237 | 2.0 | 5.0 | 0.00 | 0.00 | 0.00 | 53 | 1008.9 |
| 20260506043044 | 68 | 264 | 1.0 | 3.0 | 0.00 | 0.00 | 0.00 | 53 | 1009.0 |
| 20260506041542 | 69 | 256 | 0.0 | 3.0 | 0.00 | 0.00 | 0.00 | 53 | 1008.7 |
| 20260506040039 | 69 | 250 | 1.0 | 3.0 | 0.00 | 0.00 | 0.00 | 51 | 1008.9 |
| 20260506034539 | 70 | 237 | 1.0 | 5.0 | 0.00 | 0.00 | 0.00 | 51 | 1008.9 |
| 20260506033038 | 70 | 231 | 1.0 | 8.0 | 0.00 | 0.00 | 0.00 | 49 | 1009.0 |
| 20260506031538 | 70 | 234 | 1.0 | 4.0 | 0.00 | 0.00 | 0.00 | 50 | 1009.2 |
| 20260506030055 | 70 | 236 | 1.0 | 4.0 | 0.00 | 0.00 | 0.00 | 50 | 1009.2 |
| 20260506024547 | 70 | 212 | 1.0 | 4.0 | 0.00 | 0.00 | 0.00 | 50 | 1009.4 |
| 20260506023035 | 70 | 151 | 2.0 | 4.0 | 0.00 | 0.00 | 0.00 | 50 | 1009.0 |
| 20260506021534 | 69 | 230 | 3.0 | 9.0 | 0.00 | 0.00 | 0.00 | 50 | 1009.0 |
| 20260506020034 | 69 | 215 | 0.0 | 7.0 | 0.00 | 0.00 | 0.00 | 51 | 1009.3 |
| 20260506014543 | 68 | 243 | 0.0 | 3.0 | 0.00 | 0.00 | 0.00 | 51 | 1008.9 |
| 20260506013035 | 68 | 238 | 1.0 | 3.0 | 0.00 | 0.00 | 0.00 | 51 | 1008.8 |
| 20260506011538 | 68 | 229 | 1.0 | 4.0 | 0.00 | 0.00 | 0.00 | 50 | 1008.6 |
| 20260506010036 | 70 | 224 | 0.0 | 3.0 | 0.00 | 0.00 | 0.00 | 48 | 1008.5 |
| 20260506004544 | 70 | 216 | 0.0 | 3.0 | 0.00 | 0.00 | 0.00 | 47 | 1008.5 |
| 20260506003039 | 71 | 217 | 2.0 | 4.0 | 0.00 | 0.00 | 0.00 | 44 | 1008.8 |
| 20260506001534 | 72 | 243 | 2.0 | 8.0 | 0.00 | 0.00 | 0.00 | 43 | 1008.9 |
| 20260506000033 | 72 | 216 | 2.0 | 7.0 | 0.00 | 0.00 | 0.00 | 43 | 1008.8 |
| 20260505234533 | 72 | 229 | 2.0 | 8.0 | 0.00 | 0.00 | 0.00 | 43 | 1009.0 |
| 20260505233029 | 72 | 216 | 1.0 | 6.0 | 0.00 | 0.00 | 0.00 | 45 | 1008.6 |
| 20260505231530 | 73 | 221 | 1.0 | 6.0 | 0.00 | 0.00 | 0.00 | 47 | 1008.5 |
| 20260505230040 | 73 | 137 | 1.0 | 5.0 | 0.00 | 0.00 | 0.00 | 47 | 1008.5 |
| 20260505224533 | 74 | 237 | 1.0 | 3.0 | 0.00 | 0.00 | 0.00 | 48 | 1008.6 |
| 20260505223026 | 74 | 28 | 0.0 | 4.0 | 0.00 | 0.00 | 0.00 | 49 | 1008.5 |
| 20260505221526 | 74 | 305 | 0.0 | 4.0 | 0.00 | 0.00 | 0.00 | 48 | 1008.7 |
| 20260505220027 | 74 | 233 | 2.0 | 15.0 | 0.00 | 0.00 | 0.00 | 47 | 1008.9 |
| 20260505214532 | 74 | 233 | 2.0 | 5.0 | 0.00 | 0.00 | 0.00 | 50 | 1008.9 |
| 20260505213022 | 74 | 199 | 1.0 | 6.0 | 0.00 | 0.00 | 0.00 | 47 | 1008.8 |
| 20260505211523 | 74 | 242 | 2.0 | 7.0 | 0.00 | 0.00 | 0.00 | 47 | 1009.1 |
| 20260505210022 | 75 | 213 | 2.0 | 10.0 | 0.00 | 0.00 | 0.00 | 49 | 1009.0 |
| 20260505204519 | 74 | 237 | 2.0 | 9.0 | 0.00 | 0.00 | 0.00 | 45 | 1009.3 |
| 20260505203025 | 75 | 241 | 1.0 | 4.0 | 0.00 | 0.00 | 0.00 | 44 | 1009.6 |
| 20260505201516 | 76 | 241 | 2.0 | 11.0 | 0.00 | 0.00 | 0.00 | 41 | 1009.9 |
| 20260505200015 | 75 | 241 | 2.0 | 8.0 | 0.00 | 0.00 | 0.00 | 47 | 1009.9 |
| 20260505194512 | 74 | 211 | 1.0 | 5.0 | 0.00 | 0.00 | 0.00 | 44 | 1010.2 |
| 20260505193010 | 73 | 223 | 1.0 | 7.0 | 0.00 | 0.00 | 0.00 | 44 | 1010.2 |
| 20260505191509 | 73 | 239 | 2.0 | 8.0 | 0.00 | 0.00 | 0.00 | 45 | 1010.8 |
| 20260505190007 | 73 | 285 | 1.0 | 10.0 | 0.00 | 0.00 | 0.00 | 43 | 1010.8 |
| 20260505184504 | 73 | 234 | 3.0 | 6.0 | 0.00 | 0.00 | 0.00 | 45 | 1011.0 |
| 20260505183004 | 73 | 253 | 1.0 | 8.0 | 0.00 | 0.00 | 0.00 | 45 | 1011.4 |
| 20260505181502 | 73 | 263 | 2.0 | 12.0 | 0.00 | 0.00 | 0.00 | 42 | 1011.8 |
| 20260505180000 | 73 | 237 | 3.0 | 9.0 | 0.00 | 0.00 | 0.00 | 46 | 1012.1 |
| 20260505174600 | 73 | 241 | 1.0 | 7.0 | 0.00 | 0.00 | 0.00 | 47 | 1012.1 |